Tracking 35331 objects as of 14-Sep-2026
HD Live streaming from Space Station
objects crossing your sky now

STARLINK-6033

Track STARLINK-6033 now!
10-day predictions
STARLINK-6033 is classified as:


NORAD ID: 56322
Int'l Code: 2023-058E
Launch date: April 27, 2023
Source: United States (US)
Launch site: AIR FORCE WESTERN TEST RANGE (AFWTR)
Your satellite tracking list
Your tracking list is empty




NASA's NSSDC Master Catalog

Two Line Element Set (TLE):
1 56322U 23058F   26257.33335648  .00107251  00000-0  59740-2 0  9996
2 56322  97.2847 251.5382 0002225 128.4681 254.5489 15.13121766  5795
Source of the keplerian elements: AFSPC